Skip Navigation Links
NOAA logo - Click to go to the NOAA homepage
NOAA's National Weather Service
Alaska Aviation Weather Unit
  NWS logo - Click to go to the NWS homepage
Left Navbar Graphic     21 AKDT = 05 GMT

   
NOAA is celebrating 200 years of science, service, and stewardship. Visit the NOAA 200th celebration Web site to learn more.
USA.gov is the U.S. Government's official Web portal to all Federal, state and local government Web resources and services.
Facebook
NWS on Facebook

Important Change Regarding the AAWU Web Presence

 

Over the last several months, the AAWU has been working to navigate its webpages to a nationally supported server. Security, as well as other needs, have necessitated the change.  In the process, we have made an effort to enhance the functionality of our website, as well as some of our products. As of June 27, 2017, aawu.arh.noaa.gov will be discontinued. The new AAWU web address is weather.gov/aawu. It is now live and will run in-parallel with the old site until it is discontinued. Please send any feedback or questions regarding the new webpages to nws.ar.aawu.webauthors@noaa.gov.  Thank you for your patience during this time of transition.
AAWU Home :: Display TAF Add Bookmark
TAF PAFA 242354Z 2500/2606 25006KT P6SM FEW070
     FM250800 29005KT P6SM VCSH BKN060 PROB30 2522/2602 -SHRA
      BKN040=

METAR PAFA 242353Z 24005KT 10SM FEW065 SCT100 SCT200 22/04 A3006= METAR PAFA 250053Z VRB05KT 10SM SCT060 BKN090 BKN200 22/06 A3005= METAR PAFA 250153Z 31007KT 10SM SCT060 BKN080 BKN200 23/05 A3003= METAR PAFA 250253Z 26007KT 10SM SCT060 SCT080 BKN120 22/05 A3002= PAFA 250353Z COR 31007KT 10SM SCT070 SCT100 BKN200 23/04 A3000= METAR PAFA 250453Z 29007KT 10SM FEW070 SCT100 SCT150 22/05 A3000=
 Alaska TAF Map

NOAA's National Weather Service
Alaska Aviation Weather Unit
6930 Sand Lake Road
Anchorage, AK 99502-1845
Disclaimer
Credits
Glossary
Privacy Policy
About Us
Career Opportunities
Contact AAWU Internet Services Site last modified: April, 17th 2012